STARLINK-36736, 67911

Orbit data source: Space-Track

STARLINK-36736, 67911 is a payload satellite owned by SpaceX/Seattle (US) in LEO that was launched on Sun, 22 Feb 2026 UTC via an FALCON 9 launch vehicle from the Air Force Eastern Test Range (AFETR). Payload-class satellites include a variety of spacecraft equipped with specific instruments for various scientific and technological missions. These include communications satellites like Starlink; space stations such as the ISS; scientific satellites like the Hubble; Earth observation satellites from companies like Planet Labs, Umbra, and HawkEye 360; GPS; miniature CubeSats for education and research; and military/defense satellites.

Loading next visibility...
Identifier
67911, 2026-036H
Orbit
LEO
Country
Flag of USUS
Related business
Manufacturer
SpaceX/Seattle
Mission
Operational spacecraft
Bus & Motor
STARLINK V2MO, Unknown motor
Mass
575 kg wet, ~530 kg dry
Launch date (UTC)
2026-02-22 (3 weeks ago)
Launch vehicle
FALCON 9
Launch site
Air Force Eastern Test Range (AFETR)
Object type
Payload
Rocket body
Debris
Shape & HBR
Unknown
Radar Cross Section
RCS unknown

Expand to show TLE details & history
Last TLE update: 11 hours ago

TLE from 11 hours ago
0 STARLINK-36736
1 67911U 26036H   26071.91668981 -.01869131  00000-0 -11343-1 0  9999
2 67911  42.9995 229.9662 0001664 278.4858  23.7612 15.79620879  4165
Epoch: 2026-03-12T22:00Z
TLE epoch observation values (Epoch: 2026-03-12T22:00:01.999Z)
Latitude
-35.4007°
Longitude
40.12421°
Altitude
340.624 km
Speed
7.705 km/s
True Right ascension
12h 02m 46s
True Declination
-35° 13' 42"
Sunlit
Object was in full shadow at epoch
Visualization orbit readout
Latitude
Unknown
Longitude
Unknown
Altitude
Unknown
Speed
Unknown
Apparent Right ascension
Unknown
Apparent Declination
Unknown
Sunlit
N/A
Visualization observer readout
Local Sidereal Time
13:11:02
Azimuth
Unknown
Elevation
Unknown
Doppler factor
Unknown
Orbital elements
Apogee altitude
334.62 km
Perigee altitude
332.386 km
Semi-major axis
6,711.64 km
Eccentricity
0.00017
Inclination
42.9995°
RAAN
229.9662°
Arg. of periapsis
278.4858°
True anomaly
23.76888°
Mean anomaly
23.7612°
Eccentric anomaly
23.76504°
Mean motion
3.9473 °/min
Orbital period
91.2 mins
BSTAR
-0.011343
Loading maneuver chart data...
Computing Atmospheric mass density...
Loading historical data...
Loading historical data...
Loading historical data...
Loading historical data...
Loading historical data...
Loading historical data...
Loading historical data...

Documentation

Showing up to 5 results
|